LUCH 5A

Last updated on Sat Aug 15 2026 00:02:48 GMT+0000 (Coordinated Universal Time)

1 37951U 11074B 26226.38712726 -.00000065 00000+0 00000+0 0 9992 2 37951 8.8968 72.9415 0003291 97.9979 98.2295 1.00269645 53634
UTC large
Height (km)
Speed (km/s)
/
Latitude / Longitude
Inclination (degrees)
Orbital Period (minutes)
Azimuth
Elevation
Range (km)
Doppler Factor

Next 0 passes for location: London (51.5072 / 0.1276)

No passes found over London.
LUCH 5A